Wind_Speed
6 6 7 6 6 6 4 6 6 5 5 5 5 5 6 6 7 7 7 8 8 7 7 7 7 6 6 6 6 7 7 8 8 9 9 10 10 11 11 12 12 13 14
6 6 6 6 5 5 5 6 5 5 5 5 6 6 6 6 7 8 8 8 8 8 7 8 8 8 8 7 7 8 8 9 9 10 11 12 12 12 12 13 14 14 15
6 6 6 5 5 5 5 5 6 6 6 6 7 7 7 7 8 8 8 8 8 8 9 9 10 10 11 11 11 10 10 10 11 12 12 12 12 13 14 14 14 15 15
6 6 6 6 5 5 5 6 7 6 6 7 7 8 8 8 8 8 8 9 9 10 11 11 12 12 12 13 13 12 13 13 13 13 13 14 14 15 15 16 16 17 17
8 7 7 7 7 7 6 6 7 7 7 7 8 8 8 9 9 10 10 11 11 12 13 13 14 14 14 14 14 14 14 15 15 15 15 16 16 16 17 17 18 19 19
9 8 8 8 8 7 7 7 8 8 8 8 9 9 9 10 10 11 11 12 13 14 14 14 15 15 15 15 15 15 16 16 17 17 17 17 17 18 19 19 19 20 21
10 10 10 9 8 8 8 8 8 9 9 8 9 10 10 10 11 11 13 14 14 15 15 16 16 16 16 17 17 17 17 17 18 18 19 19 20 20 21 21 21 21 21
11 11 11 10 10 9 9 9 9 10 10 10 10 10 11 12 13 13 14 15 15 15 15 17 16 16 16 16 17 17 18 18 19 19 20 21 22 22 22 22 22 22 23
11 12 12 10 10 10 10 10 11 11 11 11 11 11 12 13 13 14 15 16 16 15 16 16 16 17 17 17 17 18 18 19 20 20 21 22 22 22 23 23 23 23 23
11 11 10 9 10 11 12 12 12 12 12 13 13 13 13 14 14 15 17 18 17 17 16 17 17 18 17 18 18 18 19 20 20 21 22 22 23 23 23 23 23 23 23
12 11 11 11 11 12 13 13 14 15 15 15 14 15 15 15 16 17 19 18 18 18 18 19 19 18 18 18 19 19 20 21 21 22 22 23 23 23 24 24 24 23 23
14 14 14 14 13 14 14 15 15 16 17 17 16 16 16 16 17 18 19 20 20 20 20 20 19 19 19 19 20 20 21 21 22 22 22 22 23 23 24 24 24 24 24
15 15 15 15 15 15 16 16 17 17 17 18 18 17 18 18 18 18 19 20 21 21 21 20 20 20 21 21 21 22 22 22 23 23 23 23 23 24 24 24 24 24 24
17 17 16 17 17 17 17 18 18 18 18 19 18 18 18 18 19 19 20 21 21 21 20 20 21 20 21 21 22 22 22 23 23 23 24 24 24 24 24 25 24 24 25
17 18 18 17 18 18 18 19 19 19 19 20 20 20 19 19 20 21 22 22 21 21 20 21 21 22 22 22 22 22 23 24 24 24 24 25 25 26 26 25 25 26 26
19 19 18 18 18 19 18 19 19 20 20 20 20 20 21 21 21 21 22 21 21 21 22 22 22 22 22 23 23 23 24 24 25 25 25 25 26 26 26 26 26 26 27
20 20 19 19 19 19 19 19 19 20 21 20 20 22 22 22 22 22 22 22 23 23 23 23 22 23 23 24 24 24 25 24 24 24 25 25 26 27 26 26 26 26 27
21 20 20 20 20 20 20 20 20 20 20 21 21 22 23 23 22 23 23 23 23 23 23 23 23 23 24 24 24 25 25 25 25 25 26 26 27 27 27 27 26 27 27
21 21 21 21 21 22 21 20 20 20 21 21 22 22 22 23 23 23 24 24 25 24 24 24 24 24 23 23 23 24 24 24 25 25 26 27 27 27 27 27 27 27 27
21 22 21 21 22 22 21 21 21 21 21 22 23 23 23 23 24 24 24 24 25 25 25 25 24 24 24 23 23 24 24 24 25 26 26 27 27 26 26 26 26 26 26
22 22 22 22 22 23 22 21 21 22 22 22 23 23 23 24 24 24 24 25 26 25 24 24 24 24 23 23 24 24 24 24 25 26 27 27 27 26 26 26 26 26 26
22 23 22 22 22 22 22 21 22 22 22 22 22 23 24 24 24 24 24 25 24 25 24 24 24 24 24 23 23 23 23 24 25 26 26 26 26 26 26 26 26 26 26
24 23 23 23 22 22 22 22 22 22 21 21 22 22 23 23 24 24 25 25 25 25 25 24 24 24 23 23 23 23 23 24 25 25 25 25 26 26 25 26 26 25 25
23 22 23 23 23 22 22 22 21 21 21 22 22 22 22 23 24 24 25 25 25 25 25 24 23 23 22 22 22 23 23 24 25 25 25 25 25 25 25 25 26 25 25
24 24 24 25 24 22 22 22 22 22 22 22 22 23 23 23 24 24 25 25 25 25 24 23 22 21 22 22 22 23 23 24 24 24 24 24 24 24 24 24 24 23 23
25 24 23 23 23 23 23 23 22 22 22 22 23 23 23 24 24 24 25 25 25 24 23 22 21 21 21 21 22 23 23 23 23 23 24 24 24 24 24 23 22 22 22
Wind_Direction
4 3 2 7 8 10 10 360 1 4 4 358 350 345 345 338 334 331 325 323 322 319 314 310 309 309 303 301 300 291 285 282 272 264 262 261 259 261 261 261 263 264 264
343 346 350 352 354 350 350 349 349 348 346 342 341 338 332 329 329 326 327 325 322 319 313 306 307 306 302 295 296 292 286 278 273 269 268 264 263 264 262 261 262 264 265
332 327 331 335 339 339 338 337 337 334 333 332 331 330 328 323 318 318 320 320 319 318 314 308 305 303 300 298 296 291 289 285 279 273 273 272 268 268 266 266 265 267 268
309 308 314 319 323 319 319 321 323 324 327 326 325 325 325 323 318 315 314 312 311 310 308 306 303 300 300 298 296 295 291 289 284 277 275 274 273 272 272 271 271 272 271
300 302 307 310 311 310 308 312 316 316 320 322 320 320 320 321 319 315 311 308 305 304 304 301 297 295 295 295 294 292 291 290 287 281 277 276 276 274 274 273 274 274 272
295 295 300 303 304 302 304 307 309 308 313 316 319 320 316 317 314 313 309 304 302 302 301 300 297 294 293 292 291 290 289 288 286 284 283 280 278 275 276 276 275 275 274
295 295 298 300 301 298 300 303 306 308 312 313 315 315 314 313 312 310 308 306 301 300 300 300 299 296 295 294 291 287 287 287 285 283 283 282 282 282 280 277 277 276 275
296 294 294 293 291 292 298 303 303 305 308 305 305 307 311 312 312 309 308 307 303 301 303 302 300 297 295 295 294 291 289 288 286 285 284 284 284 284 283 282 279 279 276
294 292 288 289 291 292 297 303 305 302 302 303 300 301 305 309 309 306 308 307 304 302 302 302 299 297 296 296 294 292 292 291 288 286 286 285 284 284 283 281 281 280 278
293 295 289 288 293 294 294 295 299 299 300 302 303 302 303 303 302 300 303 304 304 303 301 298 298 298 298 297 295 293 293 292 289 287 287 284 284 283 282 281 281 281 280
291 292 290 291 295 294 293 291 293 295 298 300 299 299 300 300 301 299 301 301 303 303 300 298 298 299 297 296 296 295 293 293 292 291 288 286 286 285 284 282 282 280 279
293 292 290 289 292 292 290 289 295 297 298 298 297 298 297 298 299 299 298 299 301 300 300 298 298 298 296 295 296 295 294 294 294 293 291 289 287 287 285 284 282 280 279
292 291 290 287 289 289 288 288 290 293 295 295 294 295 297 297 298 298 298 300 301 300 299 299 299 298 296 295 295 295 294 294 294 293 292 290 288 287 286 284 283 281 280
290 292 291 290 291 289 288 287 287 290 292 292 292 294 297 297 298 299 300 302 303 301 300 299 298 298 297 298 297 296 295 295 294 293 292 291 289 287 286 285 284 283 282
288 291 290 290 292 289 288 287 286 288 289 289 291 294 296 297 298 299 300 304 304 302 299 299 298 298 297 298 297 296 296 295 294 293 291 291 290 288 287 285 284 283 283
288 288 287 290 291 289 289 289 288 289 289 289 291 295 294 295 297 299 301 303 304 301 299 299 298 297 297 298 298 298 297 295 294 293 292 291 291 289 287 286 285 286 286
287 289 287 289 290 289 289 289 291 291 289 288 291 293 294 294 297 300 301 302 303 302 299 298 298 298 297 297 297 297 297 296 296 295 295 295 295 292 288 286 287 286 287
287 287 285 285 286 287 288 287 288 290 289 290 291 293 295 295 296 297 298 300 301 300 299 298 298 298 298 299 298 299 298 299 299 297 296 295 294 293 289 287 287 287 286
283 284 284 282 285 287 288 286 287 288 290 292 292 294 295 295 296 298 298 299 301 299 297 296 296 296 297 299 300 300 299 299 300 299 298 297 295 292 290 287 286 287 288
283 284 282 282 284 285 285 287 287 288 291 293 293 294 295 297 297 298 299 300 301 299 297 294 294 294 294 296 298 300 299 299 299 299 299 298 296 294 292 289 286 287 288
282 283 283 283 285 285 285 290 287 287 291 292 293 294 295 296 298 299 300 300 301 300 298 297 294 293 294 295 297 299 300 299 299 300 301 300 298 295 293 291 290 288 288
279 281 280 280 284 287 289 290 286 287 291 292 294 295 295 296 297 299 300 302 302 301 300 299 298 296 296 298 300 300 300 300 301 302 301 301 301 298 295 293 292 290 289
277 277 278 280 285 287 288 289 289 290 292 292 294 295 295 296 297 298 300 302 301 302 301 300 299 299 298 299 300 301 301 302 302 304 303 302 302 301 297 294 292 291 290
280 281 282 282 282 284 286 287 290 289 290 293 295 296 296 296 297 298 299 300 301 301 302 300 299 300 300 300 301 303 304 304 304 305 305 304 304 303 300 297 294 293 291
281 282 283 283 283 282 286 287 288 288 289 293 296 297 296 296 296 297 298 298 300 300 300 300 300 299 299 301 303 304 305 306 306 305 306 306 306 306 304 300 297 295 292
281 282 282 284 287 288 288 287 286 287 291 295 298 298 297 297 298 299 300 300 300 302 300 299 300 301 300 300 302 304 305 306 307 308 307 306 307 307 306 304 301 299 293
Height
5886 5885 5883 5882 5881 5879 5878 5878 5877 5876 5875 5875 5874 5873 5873 5872 5871 5870 5869 5868 5867 5866 5865 5864 5864 5863 5862 5862 5861 5861 5861 5860 5860 5860 5860 5860 5860 5860 5861 5861 5861 5861 5861
5885 5884 5883 5881 5880 5879 5878 5878 5877 5876 5875 5874 5873 5872 5871 5870 5870 5868 5867 5866 5866 5865 5864 5863 5862 5861 5860 5860 5859 5859 5858 5858 5857 5857 5857 5857 5858 5857 5857 5857 5857 5857 5857
5884 5884 5882 5881 5879 5878 5878 5877 5876 5875 5874 5873 5872 5871 5870 5869 5868 5867 5865 5865 5864 5863 5862 5861 5860 5859 5858 5857 5857 5856 5855 5855 5855 5854 5854 5854 5854 5854 5854 5853 5853 5852 5852
5883 5882 5881 5880 5878 5877 5877 5876 5875 5874 5872 5871 5871 5870 5869 5868 5867 5865 5864 5863 5862 5861 5860 5859 5858 5857 5856 5855 5854 5853 5852 5852 5851 5850 5850 5850 5850 5850 5850 5849 5848 5848 5847
5882 5881 5880 5878 5877 5876 5875 5875 5874 5873 5871 5870 5869 5868 5867 5866 5865 5864 5862 5861 5860 5859 5858 5856 5855 5854 5852 5851 5850 5850 5849 5848 5847 5846 5846 5845 5845 5845 5845 5845 5844 5843 5842
5880 5879 5878 5877 5875 5874 5873 5873 5872 5871 5870 5869 5868 5866 5865 5864 5862 5861 5860 5859 5857 5856 5854 5853 5851 5850 5849 5848 5847 5846 5845 5844 5843 5842 5841 5841 5840 5840 5840 5839 5839 5838 5836
5878 5877 5876 5875 5873 5872 5872 5871 5870 5869 5868 5866 5865 5864 5862 5861 5860 5858 5857 5855 5854 5852 5850 5849 5848 5846 5845 5844 5842 5841 5840 5839 5839 5838 5837 5836 5835 5834 5834 5833 5832 5831 5831
5876 5875 5874 5873 5872 5871 5869 5868 5867 5866 5865 5864 5863 5861 5860 5858 5857 5855 5854 5852 5850 5848 5847 5845 5843 5842 5841 5839 5838 5837 5836 5835 5834 5832 5831 5830 5829 5828 5827 5827 5826 5825 5824
5873 5872 5871 5870 5869 5868 5867 5866 5865 5864 5863 5861 5860 5859 5857 5855 5854 5852 5850 5848 5846 5844 5843 5841 5839 5838 5836 5835 5834 5832 5831 5830 5828 5827 5825 5824 5823 5821 5820 5820 5819 5818 5817
5871 5869 5868 5867 5867 5866 5864 5863 5862 5861 5859 5858 5857 5855 5854 5852 5850 5848 5847 5844 5842 5840 5838 5837 5835 5833 5832 5830 5829 5827 5826 5824 5823 5821 5820 5818 5817 5815 5814 5813 5812 5810 5810
5867 5866 5865 5864 5863 5862 5861 5860 5859 5858 5856 5855 5853 5852 5850 5848 5846 5844 5842 5839 5837 5835 5834 5832 5830 5829 5827 5826 5824 5822 5820 5819 5817 5815 5814 5812 5810 5808 5807 5806 5805 5804 5803
5863 5862 5861 5860 5859 5858 5857 5856 5855 5854 5852 5851 5849 5848 5846 5844 5842 5840 5838 5836 5833 5831 5829 5827 5826 5824 5822 5820 5819 5817 5815 5813 5811 5809 5807 5805 5804 5802 5800 5799 5798 5796 5796
5860 5858 5857 5856 5855 5854 5853 5851 5850 5849 5848 5846 5845 5843 5841 5839 5837 5835 5833 5831 5829 5826 5824 5822 5821 5819 5817 5815 5813 5811 5809 5807 5805 5803 5801 5799 5797 5795 5794 5792 5791 5789 5789
5856 5854 5853 5851 5850 5849 5848 5846 5845 5844 5843 5841 5840 5838 5836 5834 5833 5830 5828 5826 5824 5821 5819 5817 5815 5813 5811 5809 5807 5805 5803 5801 5799 5796 5794 5792 5790 5788 5787 5785 5784 5783 5781
5851 5850 5848 5847 5845 5844 5843 5842 5840 5839 5838 5836 5835 5833 5831 5830 5828 5826 5823 5821 5818 5816 5814 5812 5810 5808 5806 5804 5801 5799 5797 5795 5792 5790 5788 5785 5783 5781 5779 5778 5776 5775 5774
5847 5846 5844 5842 5841 5839 5838 5837 5835 5834 5832 5831 5830 5828 5826 5824 5822 5820 5818 5816 5813 5811 5809 5806 5804 5802 5800 5797 5795 5793 5790 5788 5785 5783 5781 5778 5776 5774 5772 5770 5769 5767 5766
5842 5840 5839 5838 5836 5835 5833 5832 5830 5828 5827 5825 5824 5822 5820 5819 5817 5815 5813 5810 5807 5805 5802 5800 5798 5796 5794 5791 5789 5786 5784 5781 5778 5776 5774 5771 5768 5766 5764 5763 5761 5760 5758
5836 5834 5833 5832 5831 5829 5828 5826 5825 5823 5821 5820 5818 5817 5815 5813 5811 5809 5807 5804 5801 5799 5796 5794 5791 5789 5787 5785 5782 5779 5776 5774 5771 5769 5766 5764 5761 5758 5757 5755 5754 5752 5750
5830 5829 5827 5826 5825 5823 5822 5821 5819 5817 5816 5814 5813 5811 5809 5807 5805 5803 5801 5798 5795 5792 5789 5787 5785 5783 5780 5778 5775 5772 5769 5767 5765 5762 5759 5756 5753 5751 5749 5747 5746 5744 5742
5825 5823 5822 5821 5819 5818 5816 5815 5813 5812 5810 5808 5807 5805 5803 5801 5799 5797 5794 5792 5789 5786 5783 5780 5778 5776 5774 5771 5769 5766 5763 5761 5758 5755 5752 5749 5746 5744 5741 5739 5738 5737 5735
5819 5817 5816 5815 5813 5811 5810 5809 5807 5806 5804 5803 5801 5799 5797 5795 5793 5791 5788 5785 5782 5779 5776 5773 5771 5769 5767 5764 5762 5759 5756 5754 5751 5748 5745 5742 5739 5737 5734 5732 5731 5729 5727
5812 5811 5810 5808 5807 5805 5804 5803 5802 5800 5798 5797 5795 5793 5791 5789 5787 5784 5781 5779 5776 5773 5770 5767 5765 5763 5760 5758 5755 5753 5750 5747 5745 5742 5739 5736 5732 5730 5727 5725 5723 5722 5720
5804 5803 5802 5801 5800 5799 5798 5797 5795 5793 5792 5790 5788 5786 5784 5782 5780 5777 5775 5772 5770 5767 5764 5761 5759 5756 5754 5751 5749 5746 5744 5741 5738 5735 5732 5729 5726 5723 5720 5718 5717 5715 5713
5797 5796 5795 5794 5793 5792 5791 5790 5788 5787 5785 5784 5782 5780 5778 5776 5773 5771 5768 5766 5763 5760 5758 5755 5752 5750 5747 5745 5743 5740 5738 5735 5732 5729 5726 5723 5720 5717 5714 5712 5710 5708 5706
5791 5790 5789 5787 5786 5785 5784 5783 5782 5780 5779 5777 5775 5773 5771 5769 5767 5764 5761 5759 5756 5753 5751 5749 5746 5744 5742 5739 5737 5735 5732 5729 5726 5723 5720 5717 5714 5711 5708 5705 5703 5702 5700
5783 5782 5781 5780 5779 5778 5777 5776 5775 5774 5772 5770 5769 5767 5765 5762 5760 5757 5754 5752 5750 5747 5745 5742 5740 5738 5736 5734 5732 5729 5726 5723 5720 5717 5714 5711 5708 5705 5702 5700 5697 5695 5694